This demonstration page uses our WeatherBlox Daily Observations layout. Learn more.

Left ArrowRight Arrow

41.55636, -103.73856

Hourly Observations for October 20, 2021

Temp ( °F °C ) Dew Point ( °F °C ) Humidity (%) Winds ( mph kmh ) Pressure ( in mb ) Visibility ( mi km ) Precip ( " mm )
12:58 am 00:58 Cloudy 33 0.4 32 0.1 98 98 NW 9 15 30.18 1022 10 16 N/A
1:58 am 01:58 Cloudy 33 0.6 33 0.3 98 98 NW 12 19 30.19 1022 10 16 N/A
2:58 am 02:58 Cloudy with Light Rain 33 0.4 32 0.1 98 98 WNW 8 13 30.21 1023 3 5 N/A
3:58 am 03:58 Cloudy with Light Showers 34 0.9 33 0.6 98 98 NW 14 22 30.22 1024 10 16 N/A
4:58 am 04:58 Cloudy 34 1 33 0.5 97 97 NW 13 20 30.24 1024 10 16 N/A
5:58 am 05:58 Cloudy 34 1 32 0.1 94 94 NW 12 19 30.26 1025 10 16 N/A
6:58 am 06:58 Cloudy 34 1.1 32 0.2 94 94 NW 15 24 30.27 1025 10 16 N/A
7:58 am 07:58 Mostly Cloudy 34 1.3 32 0.1 92 92 WNW 12 19 30.28 1025 10 16 N/A
8:58 am 08:58 Cloudy 35 1.9 33 0.7 92 92 NW 13 20 30.29 1026 10 16 N/A
9:58 am 09:58 Cloudy 38 3.5 35 1.5 87 87 NW 15 24 30.29 1026 10 16 N/A
10:58 am 10:58 Cloudy 40 4.4 34 1.3 81 81 NW 13 20 30.29 1026 10 16 N/A
11:58 am 11:58 Cloudy 42 5.5 35 1.6 76 76 NW 8 13 30.26 1025 10 16 N/A
12:58 pm 12:58 Mostly Cloudy 45 7.1 37 2.8 74 74 NNW 7 11 30.23 1024 10 16 N/A
1:58 pm 13:58 Mostly Cloudy 47 8.4 37 2.6 67 67 N 8 13 30.23 1024 10 16 N/A
2:58 pm 14:58 Partly Cloudy 50 9.8 37 2.8 62 62 NNE 6 9 30.21 1023 10 16 N/A
3:58 pm 15:58 Sunny 53 11.7 38 3.1 56 56 NW 9 15 30.20 1023 10 16 N/A
4:58 pm 16:58 Sunny 53 11.4 38 3.3 58 58 NW 9 15 30.19 1022 10 16 N/A
5:58 pm 17:58 Sunny 50 10.2 38 3.3 63 63 N N/A 30.19 1022 10 16 N/A
6:58 pm 18:58 Mostly Clear 48 8.9 38 3.3 68 68 NW 3 6 30.20 1023 10 16 N/A
7:58 pm 19:58 Partly Cloudy 41 5 37 2.7 85 85 SW 6 9 30.23 1024 10 16 N/A
8:58 pm 20:58 Clear 42 5.4 37 2.5 82 82 SW 7 11 30.24 1024 10 16 N/A
9:58 pm 21:58 Clear 42 5.6 34 1 73 73 W 3 6 30.24 1024 10 16 N/A
10:58 pm 22:58 Clear 42 5.4 33 0.7 72 72 WSW 3 6 30.24 1024 10 16 N/A
11:58 pm 23:58 Clear 38 3.2 32 0.2 81 81 WSW 7 11 30.25 1025 10 16 N/A

Powered by AerisWeather